| time (UTC) | temp F | wind direction | speed MPH | gust MPH | rain 1hr in | rain 24hr in | rain mn in | humidity % | barometer mb |
| 20260905201310 | 57 | 325 | 0.0 | 0.0 | 0.00 | 0.00 | 0.00 | 81 | 23.9 |
| 20260905194310 | 58 | 325 | 0.0 | 1.0 | 0.00 | 0.00 | 0.00 | 78 | 24.0 |
| 20260905193310 | 58 | 325 | 0.0 | 0.0 | 0.00 | 0.00 | 0.00 | 77 | 23.9 |
| 20260905192310 | 59 | 325 | 0.0 | 0.0 | 0.00 | 0.00 | 0.00 | 76 | 24.0 |
| 20260905191310 | 59 | 325 | 0.0 | 0.0 | 0.00 | 0.00 | 0.00 | 75 | 23.9 |
| 20260905185310 | 60 | 325 | 0.0 | 1.0 | 0.00 | 0.00 | 0.00 | 72 | 23.8 |
| 20260905184310 | 61 | 329 | 1.0 | 2.0 | 0.00 | 0.00 | 0.00 | 72 | 23.6 |
| 20260905183310 | 61 | 327 | 1.0 | 5.0 | 0.00 | 0.00 | 0.00 | 70 | 23.4 |
| 20260905182310 | 62 | 299 | 2.0 | 6.0 | 0.00 | 0.00 | 0.00 | 69 | 23.3 |
| 20260905181310 | 62 | 328 | 1.0 | 9.0 | 0.00 | 0.00 | 0.00 | 68 | 23.4 |
| 20260905175311 | 62 | 333 | 2.0 | 7.0 | 0.00 | 0.00 | 0.00 | 67 | 23.4 |
| 20260905174310 | 63 | 283 | 2.0 | 8.0 | 0.00 | 0.00 | 0.00 | 67 | 23.4 |
| 20260905172310 | 64 | 323 | 3.0 | 10.0 | 0.00 | 0.00 | 0.00 | 64 | 23.3 |
| 20260905165311 | 65 | 350 | 2.0 | 8.0 | 0.00 | 0.00 | 0.00 | 64 | 22.9 |
| 20260905164310 | 65 | 313 | 4.0 | 11.0 | 0.00 | 0.00 | 0.00 | 64 | 23.0 |
| 20260905162310 | 65 | 316 | 4.0 | 15.0 | 0.00 | 0.00 | 0.00 | 62 | 22.9 |
| 20260905161310 | 65 | 313 | 4.0 | 13.0 | 0.00 | 0.00 | 0.00 | 62 | 22.6 |
| 20260905155310 | 65 | 320 | 4.0 | 12.0 | 0.00 | 0.00 | 0.00 | 62 | 22.3 |
| 20260905154310 | 65 | 306 | 6.0 | 13.0 | 0.00 | 0.00 | 0.00 | 60 | 22.2 |
| 20260905152311 | 67 | 9 | 5.0 | 15.0 | 0.00 | 0.00 | 0.00 | 61 | 22.1 |
| 20260905151310 | 67 | 304 | 7.0 | 17.0 | 0.00 | 0.00 | 0.00 | 58 | 21.8 |
| 20260905145310 | 66 | 342 | 5.0 | 13.0 | 0.00 | 0.00 | 0.00 | 63 | 21.7 |
| 20260905144310 | 66 | 314 | 7.0 | 14.0 | 0.00 | 0.00 | 0.00 | 61 | 21.6 |
| 20260905142310 | 66 | 355 | 3.0 | 17.0 | 0.00 | 0.00 | 0.00 | 60 | 21.4 |
| 20260905135310 | 69 | 344 | 6.0 | 18.0 | 0.00 | 0.00 | 0.00 | 59 | 21.2 |
| 20260905134310 | 68 | 325 | 8.0 | 18.0 | 0.00 | 0.00 | 0.00 | 60 | 21.1 |
| 20260905133310 | 68 | 263 | 9.0 | 17.0 | 0.00 | 0.00 | 0.00 | 59 | 20.9 |
| 20260905132310 | 68 | 355 | 7.0 | 20.0 | 0.00 | 0.00 | 0.00 | 59 | 20.8 |
| 20260905131310 | 68 | 329 | 8.0 | 15.0 | 0.00 | 0.00 | 0.00 | 58 | 20.7 |
| 20260905124310 | 69 | 269 | 9.0 | 21.0 | 0.00 | 0.00 | 0.00 | 57 | 20.6 |
| 20260905123310 | 70 | 339 | 10.0 | 20.0 | 0.00 | 0.00 | 0.00 | 56 | 20.5 |
| 20260905122311 | 70 | 307 | 11.0 | 24.0 | 0.00 | 0.00 | 0.00 | 56 | 20.3 |
| 20260905121310 | 69 | 346 | 7.0 | 12.0 | 0.00 | 0.00 | 0.00 | 61 | 20.3 |
| 20260905115310 | 68 | 309 | 10.0 | 19.0 | 0.00 | 0.00 | 0.00 | 60 | 20.3 |
| 20260905114310 | 67 | 281 | 10.0 | 19.0 | 0.00 | 0.00 | 0.00 | 62 | 20.0 |
| 20260905113310 | 67 | 317 | 10.0 | 18.0 | 0.00 | 0.00 | 0.00 | 64 | 19.9 |
| 20260905112310 | 67 | 11 | 9.0 | 25.0 | 0.00 | 0.00 | 0.00 | 65 | 20.0 |
| 20260905111310 | 67 | 333 | 11.0 | 22.0 | 0.00 | 0.00 | 0.00 | 63 | 19.7 |
| 20260905110310 | 67 | 261 | 12.0 | 21.0 | 0.00 | 0.00 | 0.00 | 63 | 19.7 |
| 20260905103310 | 65 | 309 | 7.0 | 21.0 | 0.00 | 0.00 | 0.00 | 65 | 19.5 |
| 20260905102310 | 65 | 301 | 10.0 | 16.0 | 0.00 | 0.00 | 0.00 | 66 | 19.3 |
| 20260905101310 | 66 | 288 | 9.0 | 20.0 | 0.00 | 0.00 | 0.00 | 66 | 19.3 |
| 20260905095310 | 66 | 291 | 7.0 | 18.0 | 0.00 | 0.00 | 0.00 | 69 | 19.0 |
| 20260905094310 | 66 | 294 | 7.0 | 20.0 | 0.00 | 0.00 | 0.00 | 71 | 18.8 |
| 20260905093310 | 66 | 298 | 10.0 | 19.0 | 0.00 | 0.00 | 0.00 | 68 | 18.8 |
| 20260905092310 | 65 | 317 | 6.0 | 20.0 | 0.00 | 0.00 | 0.00 | 74 | 18.5 |
| 20260905091310 | 65 | 310 | 9.0 | 18.0 | 0.00 | 0.00 | 0.00 | 71 | 18.6 |
| 20260905085310 | 65 | 300 | 9.0 | 18.0 | 0.00 | 0.00 | 0.00 | 71 | 18.5 |
| 20260905084310 | 65 | 51 | 7.0 | 17.0 | 0.00 | 0.00 | 0.00 | 74 | 18.3 |
| 20260905083311 | 64 | 311 | 11.0 | 20.0 | 0.00 | 0.00 | 0.00 | 74 | 18.2 |
| 20260905082309 | 64 | 317 | 7.0 | 20.0 | 0.00 | 0.00 | 0.00 | 75 | 17.8 |
| 20260905081311 | 65 | 288 | 7.0 | 19.0 | 0.00 | 0.00 | 0.00 | 76 | 17.6 |
| 20260905075310 | 63 | 298 | 8.0 | 19.0 | 0.00 | 0.00 | 0.00 | 81 | 17.3 |
| 20260905074310 | 63 | 259 | 8.0 | 15.0 | 0.00 | 0.00 | 0.00 | 84 | 17.2 |
| 20260905071310 | 60 | 259 | 5.0 | 9.0 | 0.00 | 0.00 | 0.00 | 88 | 16.9 |
| 20260905065310 | 58 | 247 | 7.0 | 12.0 | 0.00 | 0.00 | 0.00 | 89 | 16.9 |
| 20260905064310 | 57 | 267 | 7.0 | 12.0 | 0.00 | 0.00 | 0.00 | 90 | 16.8 |
| 20260905063311 | 56 | 279 | 5.0 | 9.0 | 0.00 | 0.00 | 0.00 | 91 | 16.5 |
| 20260905061310 | 55 | 248 | 2.0 | 7.0 | 0.00 | 0.00 | 0.00 | 91 | 16.5 |
| 20260905054310 | 54 | 247 | 0.0 | 3.0 | 0.00 | 0.00 | 0.00 | 90 | 16.1 |
| 20260905052311 | 54 | 278 | 2.0 | 6.0 | 0.00 | 0.00 | 0.00 | 90 | 16.0 |
| 20260905051310 | 54 | 276 | 1.0 | 3.0 | 0.00 | 0.00 | 0.00 | 90 | 15.9 |
| 20260905045311 | 54 | 220 | 1.0 | 4.0 | 0.00 | 0.00 | 0.00 | 90 | 15.6 |
| 20260905044310 | 54 | 246 | 1.0 | 3.0 | 0.00 | 0.00 | 0.00 | 89 | 15.7 |
| 20260905043310 | 54 | 257 | 0.0 | 2.0 | 0.00 | 0.00 | 0.00 | 89 | 15.5 |
| 20260905042310 | 54 | 256 | 0.0 | 1.0 | 0.00 | 0.00 | 0.00 | 88 | 15.7 |
| 20260905035310 | 55 | 252 | 0.0 | 3.0 | 0.00 | 0.00 | 0.00 | 88 | 15.4 |
| 20260905034310 | 55 | 221 | 0.0 | 5.0 | 0.00 | 0.00 | 0.00 | 88 | 15.3 |
| 20260905033310 | 55 | 240 | 2.0 | 4.0 | 0.00 | 0.00 | 0.00 | 88 | 15.2 |
| 20260905031310 | 55 | 261 | 1.0 | 4.0 | 0.00 | 0.00 | 0.00 | 87 | 15.0 |
| 20260905030310 | 55 | 269 | 1.0 | 4.0 | 0.00 | 0.00 | 0.00 | 87 | 15.0 |
| 20260905025310 | 56 | 252 | 2.0 | 4.0 | 0.00 | 0.00 | 0.00 | 87 | 14.9 |
| 20260905024310 | 56 | 258 | 1.0 | 6.0 | 0.00 | 0.00 | 0.00 | 87 | 14.8 |
| 20260905023310 | 56 | 269 | 3.0 | 4.0 | 0.00 | 0.00 | 0.00 | 87 | 14.9 |
| 20260905022310 | 56 | 250 | 1.0 | 6.0 | 0.00 | 0.00 | 0.00 | 87 | 14.8 |
| 20260905021310 | 56 | 296 | 2.0 | 7.0 | 0.00 | 0.00 | 0.00 | 87 | 14.9 |
| 20260905015310 | 56 | 263 | 3.0 | 7.0 | 0.00 | 0.00 | 0.00 | 87 | 14.6 |
| 20260905014310 | 56 | 247 | 2.0 | 7.0 | 0.00 | 0.00 | 0.00 | 87 | 14.7 |
| 20260905013310 | 56 | 250 | 2.0 | 6.0 | 0.00 | 0.00 | 0.00 | 86 | 14.7 |
| 20260905012310 | 56 | 256 | 3.0 | 7.0 | 0.00 | 0.00 | 0.00 | 86 | 14.7 |
| 20260905011311 | 56 | 261 | 1.0 | 6.0 | 0.00 | 0.00 | 0.00 | 86 | 14.8 |
| 20260905005310 | 56 | 252 | 2.0 | 3.0 | 0.00 | 0.00 | 0.00 | 85 | 14.5 |
| 20260905003311 | 57 | 238 | 0.0 | 6.0 | 0.00 | 0.00 | 0.00 | 85 | 14.5 |
| 20260905002310 | 57 | 260 | 1.0 | 6.0 | 0.00 | 0.00 | 0.00 | 85 | 14.6 |
| 20260904235310 | 57 | 260 | 2.0 | 6.0 | 0.00 | 0.00 | 0.00 | 84 | 14.3 |
| 20260904234310 | 58 | 273 | 2.0 | 8.0 | 0.00 | 0.00 | 0.00 | 84 | 14.3 |
| 20260904233310 | 58 | 250 | 3.0 | 7.0 | 0.00 | 0.00 | 0.00 | 83 | 14.3 |
| 20260904232309 | 58 | 251 | 2.0 | 6.0 | 0.00 | 0.00 | 0.00 | 83 | 14.1 |
| 20260904231310 | 58 | 263 | 2.0 | 7.0 | 0.00 | 0.00 | 0.00 | 83 | 14.1 |
| 20260904225310 | 58 | 285 | 2.0 | 6.0 | 0.00 | 0.00 | 0.00 | 82 | 14.0 |
| 20260904224309 | 59 | 296 | 3.0 | 7.0 | 0.00 | 0.00 | 0.00 | 82 | 14.1 |
| 20260904223309 | 59 | 263 | 2.0 | 8.0 | 0.00 | 0.00 | 0.00 | 81 | 14.0 |
| 20260904222310 | 59 | 282 | 4.0 | 8.0 | 0.00 | 0.00 | 0.00 | 81 | 13.8 |
| 20260904221310 | 60 | 274 | 3.0 | 8.0 | 0.00 | 0.00 | 0.00 | 80 | 13.8 |
| 20260904220310 | 60 | 255 | 3.0 | 6.0 | 0.00 | 0.00 | 0.00 | 80 | 13.8 |
| 20260904215310 | 60 | 273 | 4.0 | 8.0 | 0.00 | 0.24 | 0.24 | 79 | 13.7 |
| 20260904214311 | 60 | 274 | 5.0 | 8.0 | 0.00 | 0.24 | 0.24 | 79 | 13.7 |
| 20260904213310 | 60 | 298 | 6.0 | 9.0 | 0.00 | 0.24 | 0.24 | 78 | 13.5 |
| 20260904212311 | 61 | 278 | 4.0 | 8.0 | 0.00 | 0.24 | 0.24 | 78 | 13.6 |
| 20260904211310 | 61 | 285 | 4.0 | 8.0 | 0.00 | 0.24 | 0.24 | 78 | 13.5 |
| 20260904205311 | 62 | 285 | 7.0 | 11.0 | 0.00 | 0.24 | 0.24 | 77 | 13.6 |
| 20260904204310 | 62 | 307 | 3.0 | 9.0 | 0.00 | 0.24 | 0.24 | 78 | 13.6 |
| 20260904202311 | 62 | 275 | 4.0 | 11.0 | 0.00 | 0.24 | 0.24 | 77 | 13.3 |